TimeEDT,TemperatureF,Dew PointF,Humidity,Sea Level PressureIn,VisibilityMPH,Wind Direction,Wind SpeedMPH,Gust SpeedMPH,PrecipitationIn,Events,Conditions,WindDirDegrees,DateUTC
12:56 AM,79.0,73.9,84,30.05,10.0,SW,3.5,-,N/A,,Clear,230,2013-08-03 04:56:00
1:56 AM,78.1,73.9,87,30.04,10.0,Calm,Calm,-,N/A,,Clear,0,2013-08-03 05:56:00
2:56 AM,78.1,75.0,90,30.02,10.0,Calm,Calm,-,N/A,,Clear,0,2013-08-03 06:56:00
3:56 AM,77.0,73.9,90,30.01,10.0,Calm,Calm,-,N/A,,Clear,0,2013-08-03 07:56:00
4:56 AM,77.0,73.9,90,30.01,10.0,Calm,Calm,-,N/A,,Clear,0,2013-08-03 08:56:00
5:56 AM,75.0,73.0,94,30.02,8.0,Calm,Calm,-,N/A,,Clear,0,2013-08-03 09:56:00
6:42 AM,75.0,73.0,94,30.02,1.5,Calm,Calm,-,N/A,,Clear,0,2013-08-03 10:42:00
6:44 AM,75.0,73.0,94,30.02,0.8,Calm,Calm,-,N/A,,Clear,0,2013-08-03 10:44:00
6:48 AM,75.0,73.0,94,30.02,0.2,Calm,Calm,-,N/A,Fog,Fog,0,2013-08-03 10:48:00
6:56 AM,75.9,73.9,94,30.03,0.5,Calm,Calm,-,N/A,Fog,Fog,0,2013-08-03 10:56:00
7:01 AM,75.9,73.9,94,30.02,2.0,Calm,Calm,-,N/A,,Clear,0,2013-08-03 11:01:00
7:08 AM,75.9,73.9,94,30.02,6.0,Calm,Calm,-,N/A,,Clear,0,2013-08-03 11:08:00
7:56 AM,80.1,75.9,87,30.03,10.0,Calm,Calm,-,N/A,,Clear,0,2013-08-03 11:56:00
8:56 AM,82.9,75.0,77,30.04,10.0,Calm,Calm,-,N/A,,Scattered Clouds,0,2013-08-03 12:56:00
9:56 AM,86.0,73.9,67,30.04,10.0,Calm,Calm,-,N/A,,Mostly Cloudy,0,2013-08-03 13:56:00
10:08 AM,87.1,73.9,65,30.04,10.0,Calm,Calm,-,N/A,,Scattered Clouds,0,2013-08-03 14:08:00
10:56 AM,89.1,73.9,61,30.03,10.0,Calm,Calm,-,N/A,,Mostly Cloudy,0,2013-08-03 14:56:00
11:28 AM,87.1,73.0,63,30.03,10.0,Variable,3.5,-,N/A,,Mostly Cloudy,0,2013-08-03 15:28:00
11:56 AM,89.1,73.0,59,30.02,10.0,SE,3.5,-,N/A,,Clear,130,2013-08-03 15:56:00
12:56 PM,89.1,73.9,61,30.03,10.0,NNW,4.6,-,N/A,,Mostly Cloudy,340,2013-08-03 16:56:00
1:56 PM,91.0,71.1,52,30.01,10.0,Calm,Calm,-,N/A,,Partly Cloudy,0,2013-08-03 17:56:00
1:58 PM,-9999,-9999,N/A,-9999,-9999.0,North,-9999.0,-,N/A,,Unknown,0,2013-08-03 17:58:00
2:00 PM,-9999,-9999,N/A,-9999,-9999.0,North,-9999.0,-,N/A,,Unknown,0,2013-08-03 18:00:00
2:56 PM,90.0,73.0,57,29.99,10.0,NW,6.9,-,N/A,,Mostly Cloudy,310,2013-08-03 18:56:00
3:56 PM,91.9,72.0,52,29.97,10.0,WNW,5.8,-,N/A,,Clear,300,2013-08-03 19:56:00
4:56 PM,90.0,75.9,63,29.96,10.0,Variable,4.6,-,N/A,,Scattered Clouds,0,2013-08-03 20:56:00
5:56 PM,88.0,77.0,70,29.95,10.0,South,4.6,-,N/A,,Partly Cloudy,170,2013-08-03 21:56:00
6:56 PM,87.1,77.0,72,29.95,10.0,South,4.6,-,N/A,,Clear,190,2013-08-03 22:56:00
7:56 PM,84.9,77.0,77,29.97,10.0,SSW,5.8,-,N/A,,Clear,210,2013-08-03 23:56:00
8:56 PM,84.0,77.0,79,29.98,10.0,SW,5.8,-,N/A,,Clear,220,2013-08-04 00:56:00
9:56 PM,82.9,78.1,85,30.01,10.0,SSW,6.9,-,N/A,,Overcast,210,2013-08-04 01:56:00
10:56 PM,82.0,77.0,85,30.01,10.0,WSW,4.6,-,N/A,,Scattered Clouds,250,2013-08-04 02:56:00
11:56 PM,81.0,78.1,91,30.01,9.0,West,4.6,-,N/A,,Clear,260,2013-08-04 03:56:00